EW4858 Weather Reports


Display with metric or nautical units.
time (UTC)temp
F
wind
direction
speed
MPH
gust
MPH
rain 1hr
in
rain 24hr
in
rain mn
in
humidity
%
barometer
mb
20260906033018 81 107 0.0 4.0 0.00 0.00 0.00 34 1007.9
20260906031517 82 90 1.0 7.0 0.00 0.00 0.00 36 1007.7
20260906030017 83 93 4.0 7.0 0.00 0.00 0.00 35 1007.6
20260906024517 83 80 3.0 5.0 0.00 0.00 0.00 37 1007.6
20260906023021 84 113 4.0 7.0 0.00 0.00 0.00 36 1007.5
20260906021516 85 99 2.0 7.0 0.00 0.00 0.00 32 1007.4
20260906020015 86 100 2.0 7.0 0.00 0.00 0.00 31 1007.3
20260906014520 87 89 1.0 7.0 0.00 0.00 0.00 30 1007.3
20260906013021 89 103 5.0 9.0 0.00 0.00 0.00 28 1007.3
20260906011517 90 94 4.0 9.0 0.00 0.00 0.00 33 1007.3
20260906010013 90 56 5.0 8.0 0.00 0.00 0.00 35 1007.2
20260906004512 90 44 4.0 9.0 0.00 0.00 0.00 35 1007.2
20260906003013 91 33 6.0 9.0 0.00 0.00 0.00 35 1007.2
20260906001511 91 61 3.0 9.0 0.00 0.00 0.00 34 1007.1
20260906000011 92 49 6.0 11.0 0.00 0.00 0.00 33 1007.1
20260905234510 93 59 3.0 9.0 0.00 0.00 0.00 30 1007.0
20260905233109 94 49 5.0 11.0 0.00 0.00 0.00 29 1007.1
20260905231509 94 53 5.0 10.0 0.00 0.00 0.00 29 1007.1
20260905230008 94 28 4.0 11.0 0.00 0.00 0.00 27 1007.0
20260905224507 94 80 3.0 11.0 0.00 0.00 0.00 28 1007.1
20260905223006 94 105 4.0 10.0 0.00 0.00 0.00 28 1007.3
20260905221507 93 35 4.0 10.0 0.00 0.00 0.00 29 1007.4
20260905220002 93 46 6.0 13.0 0.00 0.00 0.00 29 1007.6
20260905214503 94 66 6.0 12.0 0.00 0.00 0.00 29 1007.7
20260905213002 94 81 6.0 16.0 0.00 0.00 0.00 28 1007.7
20260905211604 94 9 6.0 11.0 0.00 0.00 0.00 27 1007.8
20260905210058 94 113 3.0 11.0 0.00 0.00 0.00 26 1007.8
20260905204556 94 345 3.0 10.0 0.00 0.00 0.00 26 1008.0
20260905203100 94 51 4.0 10.0 0.00 0.00 0.00 22 1008.2
20260905200052 93 88 3.0 8.0 0.00 0.00 0.00 19 1008.5
20260905194547 92 57 1.0 8.0 0.00 0.00 0.00 16 1008.7
20260905193104 92 117 1.0 8.0 0.00 0.00 0.00 17 1008.9
20260905191543 90 68 0.0 5.0 0.00 0.00 0.00 20 1009.1
20260905190038 89 75 0.0 6.0 0.00 0.00 0.00 22 1009.3
20260905184534 87 57 1.0 8.0 0.00 0.00 0.00 26 1009.6
20260905183032 87 67 0.0 8.0 0.00 0.00 0.00 28 1009.7
20260905181527 85 30 0.0 5.0 0.00 0.00 0.00 30 1009.8
20260905180025 84 90 1.0 3.0 0.00 0.00 0.00 32 1009.8
20260905174523 83 123 0.0 3.0 0.00 0.00 0.00 30 1009.8
20260905173021 82 58 1.0 4.0 0.00 0.00 0.00 30 1009.7
20260905171529 80 22 0.0 4.0 0.00 0.00 0.00 33 1009.6
20260905170013 79 57 1.0 4.0 0.00 0.00 0.00 33 1009.6
20260905164517 77 65 0.0 2.0 0.00 0.00 0.00 39 1009.6
20260905163004 75 49 0.0 3.0 0.00 0.00 0.00 45 1009.6
20260905161600 74 46 0.0 3.0 0.00 0.00 0.00 49 1009.5
20260905160057 72 114 1.0 3.0 0.00 0.00 0.00 54 1009.6
20260905154605 72 86 0.0 3.0 0.00 0.00 0.00 55 1009.7
20260905153052 71 94 1.0 3.0 0.00 0.00 0.00 53 1009.6
20260905151548 69 302 0.0 0.0 0.00 0.00 0.00 59 1009.5
20260905150045 68 302 0.0 0.0 0.00 0.00 0.00 63 1009.5
20260905144541 66 302 0.0 0.0 0.00 0.00 0.00 69 1009.4
20260905143039 64 302 0.0 0.0 0.00 0.00 0.00 73 1009.3
20260905141537 62 302 0.0 0.0 0.00 0.00 0.00 77 1009.3
20260905140037 60 302 0.0 2.0 0.00 0.00 0.00 80 1009.2
20260905134544 59 302 0.0 0.0 0.00 0.00 0.00 80 1008.9
20260905133035 59 302 0.0 0.0 0.00 0.00 0.00 81 1008.8
20260905131535 59 302 0.0 0.0 0.00 0.00 0.00 81 1008.7
20260905130033 59 302 0.0 0.0 0.00 0.00 0.00 80 1008.6
20260905124533 59 302 0.0 0.0 0.00 0.00 0.00 81 1008.4
20260905123032 60 302 0.0 0.0 0.00 0.00 0.00 82 1008.4
20260905121529 60 302 0.0 0.0 0.00 0.00 0.00 82 1008.4
20260905114529 60 302 0.0 0.0 0.00 0.00 0.00 82 1008.4
20260905113024 60 302 0.0 0.0 0.00 0.00 0.00 82 1008.5
20260905111522 61 302 0.0 0.0 0.00 0.00 0.00 82 1008.5
20260905110021 61 302 0.0 0.0 0.00 0.00 0.00 82 1008.6
20260905104521 61 302 0.0 0.0 0.00 0.00 0.00 82 1008.5
20260905103027 61 302 0.0 0.0 0.00 0.00 0.00 82 1008.5
20260905101519 61 302 0.0 0.0 0.00 0.00 0.00 81 1008.7
20260905100016 62 302 0.0 0.0 0.00 0.00 0.00 81 1008.7
20260905094517 62 302 0.0 0.0 0.00 0.00 0.00 80 1008.7
20260905093013 62 302 0.0 0.0 0.00 0.00 0.00 80 1008.8
20260905091512 62 302 0.0 0.0 0.00 0.00 0.00 80 1008.7
20260905090010 63 302 0.0 0.0 0.00 0.00 0.00 79 1008.9
20260905084508 63 302 0.0 0.0 0.00 0.00 0.00 79 1009.0
20260905083010 63 302 0.0 0.0 0.00 0.00 0.00 79 1009.0
20260905081503 64 302 0.0 0.0 0.00 0.00 0.00 78 1009.3
20260905080006 64 302 0.0 0.0 0.00 0.00 0.00 78 1009.4
20260905074502 64 302 0.0 3.0 0.00 0.00 0.00 78 1009.6
20260905073104 64 302 0.0 3.0 0.00 0.00 0.00 77 1009.8
20260905071605 64 303 0.0 0.0 0.00 0.00 0.00 78 1009.8
20260905070055 65 303 0.0 3.0 0.00 0.00 0.00 81 1009.7
20260905064555 66 303 0.0 0.0 0.00 0.00 0.00 82 1009.6
20260905063054 66 303 0.0 0.0 0.00 0.00 0.00 82 1009.7
20260905061606 67 303 0.0 0.0 0.00 0.00 0.00 82 1009.5
20260905060058 67 303 0.0 3.0 0.00 0.00 0.00 82 1009.4
20260905054554 67 302 0.0 0.0 0.00 0.00 0.00 81 1009.4
20260905053052 68 307 0.0 3.0 0.00 0.00 0.00 81 1009.4
20260905051600 68 315 0.0 3.0 0.00 0.00 0.00 80 1009.4
20260905050051 68 307 0.0 5.0 0.00 0.00 0.00 79 1009.3
20260905044552 68 329 0.0 0.0 0.00 0.00 0.00 79 1009.2
20260905043057 69 329 0.0 3.0 0.00 0.00 0.00 78 1009.0
20260905041550 69 329 0.0 0.0 0.00 0.00 0.00 77 1008.9
20260905040056 70 329 0.0 0.0 0.00 0.00 0.00 76 1008.9
20260905034551 70 307 0.0 0.0 0.00 0.00 0.00 74 1008.8